This demonstration page uses our WeatherBlox Daily Observations layout. Learn more.

38.88101, -77.10428

Hourly Observations for June 27, 2016

Temp ( °F °C ) Dew Point ( °F °C ) Humidity (%) Winds ( mph kmh ) Pressure ( in mb ) Visibility ( mi km ) Precip ( " mm )
12:52 am 00:52 Clear 71 21.7 63 17.2 76 76 SSW 8 13 30.16 1021 10 16.0934 0 0
1:52 am 01:52 Partly Cloudy 70 21.1 63 17.2 79 79 SSW 12 19 30.14 1021 10 16.0934 0 0
2:52 am 02:52 Mostly Clear 69 20.6 62 16.7 78 78 S 9 15 30.12 1020 10 16.0934 0 0
3:52 am 03:52 Clear 69 20.6 62 16.7 78 78 S 10 17 30.11 1020 10 16.0934 0 0
4:52 am 04:52 Partly Cloudy 68 20 64 17.8 87 87 S 8 13 30.11 1020 10 16.0934 0 0
5:52 am 05:52 Partly Cloudy 68 20 65 18.3 90 90 SSE 9 15 30.11 1020 10 16.0934 0 0
6:52 am 06:52 Partly Cloudy 69 20.6 66 18.9 90 90 S 10 17 30.1 1019 10 16.0934 0 0
6:56 am 06:56 Mostly Sunny 70 21 66 19 88 88 S 9 15 30.09 1019 10 16.0934 0 0
7:52 am 07:52 Partly Cloudy 71 21.7 65 18.3 81 81 SSW 10 17 30.1 1019 10 16.0934 0 0
8:52 am 08:52 Partly Cloudy 75 23.9 67 19.4 76 76 S 9 15 30.1 1019 10 16.0934 0 0
9:52 am 09:52 Partly Cloudy 77 25 67 19.4 71 71 S 13 20 30.08 1019 10 16.0934 0 0
10:52 am 10:52 Partly Cloudy 79 26.1 67 19.4 67 67 S 13 20 30.07 1018 10 16.0934 0 0
11:52 am 11:52 Mostly Cloudy 81 27.2 67 19.4 62 62 S 10 17 30.06 1018 10 16.0934 0 0
12:52 pm 12:52 Mostly Cloudy 84 28.9 68 20 59 59 S 13 20 30.04 1017 10 16.0934 0 0
1:52 pm 13:52 Partly Cloudy 86 30 69 20.6 57 57 S 17 28 30.01 1016 10 16.0934 0 0
2:52 pm 14:52 Mostly Cloudy 85 29.4 68 20 57 57 S 10 17 29.99 1016 10 16.0934 0 0
3:52 pm 15:52 Mostly Cloudy 86 30 70 21.1 59 59 S 9 15 29.98 1015 10 16.0934 0 0
4:52 pm 16:52 Mostly Cloudy 86 30 70 21.1 59 59 S 13 20 29.95 1014 10 16.0934 0 0
5:52 pm 17:52 Cloudy 84 28.9 70 21.1 63 63 S 10 17 29.96 1015 10 16.0934 0 0
6:47 pm 18:47 Cloudy with Light Rain 84 29 72 22 66 66 S 9 15 29.97 1015 10 16.0934 0 0.0254
6:52 pm 18:52 Cloudy with Light Rain 83 28.3 72 22.2 70 70 S 7 11 29.97 1015 10 16.0934 0 0.0254
7:45 pm 19:45 Cloudy 82 27.8 72 22.2 72 72 S 7 11 29.97 1015 10 16.0934 0.01 0.254
7:52 pm 19:52 Mostly Cloudy 82 27.8 72 22.2 72 72 S 7 11 29.96 1015 10 16.0934 0.01 0.254
8:52 pm 20:52 Mostly Cloudy 80 26.7 71 21.7 74 74 SE 9 15 29.96 1015 10 16.0934 0 0
9:52 pm 21:52 Mostly Cloudy 79 26.1 68 20 69 69 S 7 11 29.97 1015 10 16.0934 0 0
10:52 pm 22:52 Mostly Cloudy 77 25 68 20 74 74 S 8 13 29.97 1015 10 16.0934 0 0
11:22 pm 23:22 Cloudy with Light Rain 77 25 70 21 79 79 S 7 11 29.97 1015 10 16.0934 0 0
11:31 pm 23:31 Cloudy with Heavy Rain 75 23.9 71 21.7 88 88 S 8 13 29.97 1015 3 4.82802 0.05 1.27
11:33 pm 23:33 Cloudy with Heavy Rain 74 23.3 71 21.7 91 91 SSE 8 13 29.97 1015 2.5 4.02335 0.08 2.032
11:40 pm 23:40 Cloudy with Heavy Rain 73 23 72 22 94 94 SSE 6 9 29.97 1015 3 4.82802 0 0
11:52 pm 23:52 Cloudy with Heavy Rain 74 23.3 70 21.1 88 88 ESE 7 11 29.97 1015 3 4.82802 0.18 4.572
11:55 pm 23:55 Cloudy with Heavy Rain 74 23.3 71 21.7 91 91 ESE 9 15 29.97 1015 2 3.21868 0.03 0.762

Powered by AerisWeather